Black River Falls, WI

7:56 PM CST on February 20, 2017 (GMT -0600)
Black River Falls Area

Weather History for KBCK - January, 2012

Change the Weather History Date:

Wednesday, January 11, 2012

  Actual Average (KCMY) Record (KCMY)
Temperature  
Mean Temperature 32 °F -  
Max Temperature 44 °F 21 °F 49 °F (1980)
Min Temperature 21 °F 0 °F -35 °F (1979)
Degree Days  
Heating Degree Days 32    
Moisture  
Dew Point 27 °F    
Average Humidity 84    
Maximum Humidity 100    
Minimum Humidity 61    
Precipitation  
Precipitation 0.00 in - - ()
Sea Level Pressure  
Sea Level Pressure 29.61 in    
Wind  
Wind Speed 3 mph (WNW)    
Max Wind Speed 14 mph    
Max Gust Speed 25 mph    
Visibility 10 miles    
Events Rain , Snow    
Averages and records for this station are not official NWS values.
T = Trace of Precipitation, MM = Missing Value Source: NWS Daily Summary

Daily Weather History Graph

Daily Weather History Graph

Search for Another Location

Airport or City:

Trip Planner

Search our weather history database for the weather conditions in past years. The results will help you decide how hot, cold, wet, or windy it might be!

Date:

Astronomy

Jan. 11, 2012 Rise Set
Actual Time 7:37 AM CST 4:45 PM CST
Civil Twilight 7:05 AM CST 5:17 PM CST
Nautical Twilight 6:29 AM CST 5:53 PM CST
Astronomical Twilight 5:54 AM CST 6:28 PM CST
Moon 7:51 PM CST (1/11) 8:43 AM CST (1/11)
Length of Visible Light 10h 12m
Length of Day
9h 07m
Waning Gibbous, 93% of the Moon is Illuminated
Jan 11
Waning Gibbous
Jan 16
Last Quarter
Jan 23
New
Jan 30
First Quarter
Feb 7
Full

Hourly Weather History & Observations

Time (CST) Temp. Windchill Dew Point Humidity Pressure Visibility Wind Dir Wind Speed Gust Speed Precip Events Conditions
12:15 AM 24.8 °F - 24.8 °F 100% 29.65 in 10.0 mi Calm Calm - N/A   Clear
12:35 AM 26.6 °F - 24.8 °F 93% 29.64 in 7.0 mi Calm Calm - N/A   Clear
12:55 AM 24.8 °F - 23.0 °F 93% 29.64 in 7.0 mi Calm Calm - N/A   Clear
1:15 AM 24.8 °F - 23.0 °F 93% 29.64 in 10.0 mi Calm Calm - N/A   Clear
1:35 AM 26.6 °F - 26.6 °F 100% 29.64 in 10.0 mi Calm Calm - N/A   Clear
1:55 AM 24.8 °F - 23.0 °F 93% 29.64 in 10.0 mi Calm Calm - N/A   Clear
2:15 AM 26.6 °F - 24.8 °F 93% 29.65 in 10.0 mi Calm Calm - N/A   Clear
2:35 AM 26.6 °F - 24.8 °F 93% 29.65 in 7.0 mi Calm Calm - N/A   Clear
2:55 AM 26.6 °F - 24.8 °F 93% 29.64 in 7.0 mi Calm Calm - N/A   Clear
3:15 AM 23.0 °F - 23.0 °F 100% 29.63 in 10.0 mi Calm Calm - N/A   Clear
3:35 AM 23.0 °F - 23.0 °F 100% 29.62 in 10.0 mi Calm Calm - N/A   Clear
3:55 AM 23.0 °F - 21.2 °F 93% 29.62 in 7.0 mi Calm Calm - N/A   Clear
4:15 AM 23.0 °F 18.4 °F 21.2 °F 93% 29.61 in 7.0 mi South 3.5 mph - N/A   Clear
4:35 AM 21.2 °F - 21.2 °F 100% 29.61 in 10.0 mi Calm Calm - N/A   Clear
4:55 AM 21.2 °F - 21.2 °F 100% 29.61 in 10.0 mi Calm Calm - N/A   Clear
5:15 AM 21.2 °F 16.4 °F 21.2 °F 100% 29.61 in 10.0 mi SSW 3.5 mph - N/A   Clear
5:35 AM 21.2 °F - 21.2 °F 100% 29.60 in 10.0 mi Calm Calm - N/A   Clear
5:55 AM 21.2 °F - 21.2 °F 100% 29.60 in 10.0 mi Calm Calm - N/A   Clear
6:15 AM 21.2 °F - 21.2 °F 100% 29.60 in 10.0 mi Calm Calm - N/A   Clear
6:35 AM 23.0 °F - 21.2 °F 93% 29.60 in 10.0 mi Calm Calm - N/A   Clear
6:55 AM 21.2 °F - 21.2 °F 100% 29.60 in 7.0 mi Calm Calm - N/A   Clear
7:15 AM 21.2 °F - 21.2 °F 100% 29.60 in 10.0 mi Calm Calm - N/A   Clear
7:35 AM 23.0 °F - 21.2 °F 93% 29.59 in 10.0 mi Calm Calm - N/A   Clear
7:55 AM 21.2 °F - 21.2 °F 100% 29.59 in 10.0 mi Calm Calm - N/A   Clear
8:15 AM 21.2 °F - 21.2 °F 100% 29.60 in 10.0 mi Calm Calm - N/A   Clear
8:35 AM 24.8 °F - 23.0 °F 93% 29.60 in 10.0 mi Calm Calm - N/A   Clear
8:55 AM 28.4 °F - 26.6 °F 93% 29.60 in 10.0 mi Calm Calm - N/A   Clear
9:15 AM 32.0 °F - 30.2 °F 93% 29.59 in 10.0 mi Calm Calm - N/A   Clear
9:35 AM 33.8 °F - 30.2 °F 87% 29.60 in 10.0 mi Calm Calm - N/A   Clear
9:55 AM 37.4 °F - 30.2 °F 75% 29.59 in 10.0 mi Calm Calm - N/A   Clear
10:15 AM 39.2 °F 37.0 °F 30.2 °F 70% 29.60 in 10.0 mi SSW 3.5 mph - N/A   Clear
10:35 AM 41.0 °F 39.0 °F 30.2 °F 65% 29.59 in 10.0 mi SSW 3.5 mph - N/A   Clear
10:55 AM 42.8 °F 41.1 °F 30.2 °F 61% 29.59 in 10.0 mi WSW 3.5 mph - N/A   Clear
11:15 AM 42.8 °F 40.1 °F 30.2 °F 61% 29.59 in 10.0 mi SW 4.6 mph - N/A   Clear
11:35 AM 44.6 °F 40.7 °F 32.0 °F 61% 29.58 in 10.0 mi West 6.9 mph - N/A   Clear
11:55 AM 44.6 °F 42.2 °F 32.0 °F 61% 29.57 in 10.0 mi SW 4.6 mph - N/A   Clear
12:35 PM 44.6 °F 40.7 °F 32.0 °F 61% 29.56 in 10.0 mi WNW 6.9 mph - N/A   Clear
12:55 PM 44.6 °F 39.7 °F 32.0 °F 61% 29.57 in 10.0 mi West 9.2 mph - N/A   Clear
1:15 PM 44.6 °F 39.7 °F 32.0 °F 61% 29.57 in 10.0 mi West 9.2 mph - N/A   Clear
1:35 PM 44.6 °F 42.2 °F 32.0 °F 61% 29.58 in 10.0 mi WSW 4.6 mph - N/A   Clear
1:55 PM 44.6 °F 40.2 °F 32.0 °F 61% 29.58 in 10.0 mi WNW 8.1 mph - N/A   Clear
2:15 PM 44.6 °F 40.2 °F 32.0 °F 61% 29.58 in 10.0 mi WNW 8.1 mph - N/A   Clear
2:35 PM 44.6 °F 40.2 °F 32.0 °F 61% 29.58 in 10.0 mi NW 8.1 mph - N/A   Clear
2:55 PM 42.8 °F 37.0 °F 32.0 °F 66% 29.59 in 10.0 mi WNW 10.4 mph - N/A   Clear
3:15 PM 42.8 °F 37.0 °F 32.0 °F 66% 29.60 in 10.0 mi WNW 10.4 mph - N/A   Scattered Clouds
3:35 PM 41.0 °F 36.4 °F 32.0 °F 70% 29.60 in 10.0 mi WNW 6.9 mph - N/A   Mostly Cloudy
3:55 PM 41.0 °F 34.7 °F 32.0 °F 70% 29.61 in 10.0 mi NW 10.4 mph - N/A   Overcast
4:15 PM 39.2 °F 32.5 °F 32.0 °F 75% 29.62 in 10.0 mi NW 10.4 mph - N/A   Overcast
4:55 PM 37.4 °F 30.8 °F 32.0 °F 81% 29.62 in 10.0 mi NW 9.2 mph 18.4 mph N/A   Overcast
5:15 PM 35.6 °F 27.1 °F 32.0 °F 87% 29.63 in 10.0 mi NW 12.7 mph 17.3 mph N/A   Overcast
5:35 PM 35.6 °F 26.6 °F 32.0 °F 87% 29.63 in 10.0 mi NW 13.8 mph 19.6 mph N/A   Overcast
5:55 PM 35.6 °F 29.2 °F 32.0 °F 87% 29.64 in 10.0 mi NW 8.1 mph - N/A   Overcast
6:15 PM 33.8 °F 25.8 °F 32.0 °F 93% 29.64 in 10.0 mi NW 10.4 mph 17.3 mph N/A Rain Light Rain
6:35 PM 33.8 °F 25.8 °F 30.2 °F 87% 29.65 in 10.0 mi NNW 10.4 mph 18.4 mph N/A   Overcast
6:55 PM 32.0 °F 23.6 °F 28.4 °F 87% 29.66 in 10.0 mi NNW 10.4 mph 23.0 mph N/A   Overcast
7:15 PM 32.0 °F 23.6 °F 28.4 °F 87% 29.66 in 10.0 mi WNW 10.4 mph 19.6 mph N/A   Overcast
7:35 PM 32.0 °F 24.2 °F 26.6 °F 80% 29.66 in 10.0 mi NW 9.2 mph - N/A Snow Light Snow
7:55 PM 30.2 °F 21.3 °F 26.6 °F 86% 29.67 in 10.0 mi NW 10.4 mph 18.4 mph N/A Snow Light Snow
8:15 PM 28.4 °F 17.5 °F 23.0 °F 80% 29.67 in 10.0 mi NW 13.8 mph 21.9 mph N/A Snow Light Snow
8:35 PM 28.4 °F 18.0 °F 23.0 °F 80% 29.68 in 10.0 mi NNW 12.7 mph 25.3 mph N/A   Overcast
8:55 PM 28.4 °F 19.7 °F 23.0 °F 80% 29.67 in 10.0 mi NW 9.2 mph 19.6 mph N/A Snow Light Snow
9:15 PM 26.6 °F 16.2 °F 23.0 °F 86% 29.67 in 4.0 mi NW 11.5 mph - N/A Snow Light Snow
9:35 PM 26.6 °F 18.2 °F 23.0 °F 86% 29.67 in 1.2 mi NW 8.1 mph - N/A Snow Light Snow
9:55 PM 26.6 °F 17.5 °F 21.2 °F 80% 29.68 in 4.0 mi NW 9.2 mph - N/A Snow Light Snow
10:15 PM 24.8 °F 13.4 °F 19.4 °F 80% 29.68 in 2.5 mi WNW 12.7 mph 19.6 mph N/A Snow Light Snow
10:35 PM 23.0 °F 11.7 °F 19.4 °F 86% 29.69 in 3.0 mi NW 11.5 mph 17.3 mph N/A Snow Light Snow
10:55 PM 23.0 °F 13.9 °F 19.4 °F 86% 29.70 in 1.8 mi NW 8.1 mph - N/A Snow Light Snow
11:15 PM 23.0 °F 14.7 °F 19.4 °F 86% 29.70 in 1.8 mi NW 6.9 mph - N/A Snow Light Snow
11:35 PM 21.2 °F 8.3 °F 17.6 °F 86% 29.69 in 2.5 mi NW 13.8 mph 17.3 mph N/A Snow Light Snow
11:55 PM 21.2 °F 9.5 °F 17.6 °F 86% 29.69 in 3.0 mi NW 11.5 mph 19.6 mph N/A Snow Light Snow